Regional Weather Roundup
Issued by NWS Cleveland, OH

Home | Current Version | Previous Version | Graphics & Text | Print | Product List | Glossary On
Versions: 1 2 3 4 5 6 7 8 9 10 11 12 13 14 15 16 17 18 19 20 21 22 23 24 25 26 27 28 29 30 31 32 33 34 35 36 37 38 39 40 41 42 43 44 45 46 47 48 49 50
000
ASUS41 KCLE 051200
RWRCLE
OHIO REGIONAL WEATHER ROUNDUP
NATIONAL WEATHER SERVICE WILMINGTON, OH
800 AM EDT THU MAY 05 2016

NOTE: "FAIR" INDICATES FEW OR NO CLOUDS BELOW 12,000 FEET WITH NO
SIGNIFICANT WEATHER AND/OR OBSTRUCTIONS TO VISIBILITY.

OHZ001>008-015>018-024>027-034-035-043-044-051300-
   NORTHWEST OHIO

CITY           SKY/WX    TMP DP  RH WIND       PRES   REMARKS
DEFIANCE       CLOUDY    48  43  82 N9        29.81R
FINDLAY        CLOUDY    45  40  82 NW6       29.78R
TOLEDO EXPRESS FAIR      45  42  89 N12       29.79R
TOLEDO EXEC    FAIR      49  42  77 N10       29.79R
LIMA           LGT RAIN  41  40  96 NW8       29.78R FOG
$$

OHZ009>014-019>023-028>033-038-089-051300-
   NORTHEAST OHIO

CITY           SKY/WX    TMP DP  RH WIND       PRES   REMARKS
CLE-HOPKINS    CLOUDY    49  45  86 NE7       29.77R
CLE-LAKEFRONT  CLOUDY    48  45  89 NE10      29.74R
CUY CO. ARPT   CLOUDY    48  46  93 E6        29.74R FOG
LORAIN-ELYRIA  LGT RAIN  47  43  86 NE10      29.75R FOG
ASHTABULA      CLOUDY    49  46  90 N5        29.74R
AKRON-CANTON   CLOUDY    48  45  89 N8        29.73R FOG
WOOSTER        NOT AVBL
MANSFIELD      FOG       44  44 100 NW7       29.74R VSB 1/2
YOUNGSTOWN     LGT RAIN  49  46  90 NW3       29.72R FOG
$$

OHZ042-051>053-060>062-070>072-077>081-051300-
  SOUTHWEST OHIO

CITY           SKY/WX    TMP DP  RH WIND       PRES   REMARKS
CINC-COVINGTON CLOUDY    42  38  85 N7        29.78R
CINC-LUNKEN    CLOUDY    43  38  82 NE7       29.80R
HAMILTON       CLOUDY    42  37  82 N5        29.81R
DAYTON         NOT AVBL
WRIGHT-PAT AFB NOT AVBL
DAYTON GENERAL FAIR      42  37  82 CALM      29.78R
WILMINGTON     CLOUDY    40  37  89 NW5       29.77R
$$

OHZ036-037-039>041-045>050-054>059-063>069-073>076-082>088-051300-
  CENTRAL AND SOUTHEAST OHIO

CITY           SKY/WX    TMP DP  RH WIND       PRES   REMARKS
COLUMBUS       PTSUNNY   42  39  89 NW5       29.75R
OSU AIRPORT    CLOUDY    43  39  86 NW7       29.76R
BOLTON FIELD   SUNNY     39  37  93 W3        29.77R
RICKENBACK AFB NOT AVBL
NEWARK         CLOUDY    45  40  82 NW5       29.74R
MARION         LGT RAIN  43  41  93 NW8       29.77R FOG
LANCASTER      FAIR      42  38  85 NW6       29.76R
ZANESVILLE     CLOUDY    46  42  86 NW6       29.73R
NEW PHILLY     LGT RAIN  49  47  93 NW6       29.73R FOG
$$




USA.gov is the U.S. government's official web portal to all federal, state and local government web resources and services.